Charlwood, United Kingdom

12:09 AM GMT on February 22, 2017 (GMT +0000)
London Gatwick Airport

Weather History for EGKK - December, 2012

Change the Weather History Date:

Saturday, December 1, 2012

  Actual Average Record
Temperature  
Mean Temperature 34 °F -  
Max Temperature 42 °F 46 °F 57 °F (2015)
Min Temperature 26 °F 34 °F 21 °F (2016)
Degree Days  
Heating Degree Days 31    
Moisture  
Dew Point 30 °F    
Average Humidity 87    
Maximum Humidity 100    
Minimum Humidity 70    
Precipitation  
Precipitation 0.00 in 0.10 in - ()
Sea Level Pressure  
Sea Level Pressure 29.96 in    
Wind  
Wind Speed 4 mph ()    
Max Wind Speed 13 mph    
Max Gust Speed -    
Visibility 3.1 miles    
Events Fog , Rain , Snow    
Averages and records for this station are not official NWS values.
T = Trace of Precipitation, MM = Missing Value Source: Averaged Metar Reports

Daily Weather History Graph

Daily Weather History Graph

Search for Another Location

Airport or City:

Trip Planner

Search our weather history database for the weather conditions in past years. The results will help you decide how hot, cold, wet, or windy it might be!

Date:

Astronomy

Dec. 01, 2012 Rise Set
Actual Time 7:42 AM GMT 3:56 PM GMT
Civil Twilight 7:04 AM GMT 4:35 PM GMT
Nautical Twilight 6:22 AM GMT 5:17 PM GMT
Astronomical Twilight 5:42 AM GMT 5:57 PM GMT
Moon 6:37 PM GMT (12/1) 9:42 AM GMT (12/1)
Length of Visible Light 9h 31m
Length of Day
8h 13m
Waning Gibbous, 93% of the Moon is Illuminated
Dec 1
Waning Gibbous
Dec 6
Last Quarter
Dec 13
New
Dec 20
First Quarter
Dec 28
Full

Hourly Weather History & Observations

Time (GMT) Temp. Windchill Dew Point Humidity Pressure Visibility Wind Dir Wind Speed Gust Speed Precip Events Conditions
12:20 AM 30.2 °F - 28.4 °F 93% 29.95 in - Calm Calm - N/A   Haze
12:50 AM 30.2 °F - 28.4 °F 93% 29.95 in - Calm Calm - N/A   Haze
1:20 AM 28.4 °F 24.6 °F 26.6 °F 93% 29.95 in 0.7 mi West 3.5 mph - N/A   Haze
1:50 AM 30.2 °F - 28.4 °F 93% 29.95 in - Calm Calm - N/A   Haze
2:20 AM 30.2 °F - 28.4 °F 93% 29.95 in - WSW 2.3 mph - N/A   Haze
2:50 AM 30.2 °F - 28.4 °F 93% 29.98 in 2.5 mi Variable 2.3 mph - N/A   Haze
3:20 AM 28.4 °F - 28.4 °F 100% 29.98 in 1.4 mi Variable 2.3 mph - N/A   Haze
3:50 AM 30.2 °F - 28.4 °F 93% 29.98 in 0.1 mi Variable 2.3 mph - N/A Fog Light Freezing Fog
4:20 AM 30.2 °F - 28.4 °F 93% 29.98 in 0.1 mi Calm Calm - N/A Fog Light Freezing Fog
4:50 AM 30.2 °F - 28.4 °F 93% 29.98 in 0.1 mi Calm Calm - N/A Fog Light Freezing Fog
5:20 AM 30.2 °F - 28.4 °F 93% 29.98 in 0.0 mi Variable 2.3 mph - N/A Rain Light Freezing Rain
5:50 AM 30.2 °F 26.7 °F 28.4 °F 93% 29.98 in 0.0 mi Variable 3.5 mph - N/A Snow Snow Grains
6:20 AM 28.4 °F - 26.6 °F 93% 29.98 in 0.2 mi Variable 2.3 mph - N/A Fog Fog
6:50 AM 26.6 °F 22.6 °F 26.6 °F 100% 29.98 in 0.4 mi SW 3.5 mph - N/A Fog Light Freezing Fog
7:20 AM 26.6 °F 22.6 °F 24.8 °F 93% 29.98 in 0.9 mi SW 3.5 mph - N/A Fog Patches of Fog
7:50 AM 26.6 °F - 26.6 °F 100% 29.98 in 0.7 mi Variable 2.3 mph - N/A Fog Patches of Fog
8:20 AM 26.6 °F 22.6 °F 26.6 °F 100% 29.98 in 0.3 mi WSW 3.5 mph - N/A Fog Light Freezing Fog
8:50 AM 28.4 °F 24.6 °F 26.6 °F 93% 29.98 in 0.2 mi Variable 3.5 mph - N/A Fog Light Freezing Fog
9:20 AM 30.2 °F 26.7 °F 28.4 °F 93% 29.98 in 1.6 mi SW 3.5 mph - N/A   Scattered Clouds
9:50 AM 30.2 °F 26.7 °F 30.2 °F 100% 29.98 in 1.2 mi Variable 3.5 mph - N/A   Scattered Clouds
10:20 AM 32.0 °F 26.4 °F 30.2 °F 93% 29.98 in 1.9 mi SSW 5.8 mph - N/A   Scattered Clouds
10:50 AM 33.8 °F 29.6 °F 32.0 °F 93% 29.98 in 1.9 mi WSW 4.6 mph - N/A   Scattered Clouds
11:20 AM 35.6 °F 30.7 °F 33.8 °F 93% 29.95 in 3.1 mi WSW 5.8 mph - N/A   Partly Cloudy
11:50 AM 37.4 °F 32.8 °F 35.6 °F 93% 29.95 in 4.3 mi SW 5.8 mph - N/A   Partly Cloudy
12:20 PM 41.0 °F 34.3 °F 35.6 °F 81% 29.95 in 6.2 mi WSW 11.5 mph - N/A   Mostly Cloudy
12:50 PM 41.0 °F 34.7 °F 35.6 °F 81% 29.92 in 6.2 mi WSW 10.4 mph - N/A   Mostly Cloudy
1:20 PM 41.0 °F 35.2 °F 37.4 °F 87% 29.92 in 6.2 mi West 9.2 mph - N/A   Mostly Cloudy
1:50 PM 42.8 °F 37.0 °F 37.4 °F 81% 29.92 in 6.2 mi West 10.4 mph - N/A   Mostly Cloudy
2:20 PM 42.8 °F 37.5 °F 37.4 °F 81% 29.92 in 6.2 mi WNW 9.2 mph - N/A   Mostly Cloudy
2:50 PM 42.8 °F 36.6 °F 35.6 °F 76% 29.92 in 6.2 mi WNW 11.5 mph - N/A   Mostly Cloudy
3:20 PM 42.8 °F 36.2 °F 35.6 °F 76% 29.92 in 6.2 mi NW 12.7 mph - N/A   Mostly Cloudy
3:50 PM 41.0 °F 34.3 °F 33.8 °F 76% 29.95 in 6.2 mi WNW 11.5 mph - N/A   Mostly Cloudy
4:20 PM 41.0 °F 35.2 °F 33.8 °F 76% 29.95 in 6.2 mi WNW 9.2 mph - N/A   Mostly Cloudy
4:50 PM 41.0 °F 35.2 °F 32.0 °F 70% 29.95 in 6.2 mi WNW 9.2 mph - N/A   Mostly Cloudy
5:20 PM 39.2 °F 32.5 °F 32.0 °F 75% 29.95 in 6.2 mi NW 10.4 mph - N/A   Partly Cloudy
5:50 PM 39.2 °F 33.6 °F 32.0 °F 75% 29.95 in 6.2 mi NW 8.1 mph - N/A   Partly Cloudy
6:20 PM 37.4 °F 31.4 °F 32.0 °F 81% 29.95 in 6.2 mi NW 8.1 mph - N/A   Partly Cloudy
6:50 PM 37.4 °F 30.3 °F 32.0 °F 81% 29.95 in - NW 10.4 mph - N/A   Clear
7:20 PM 35.6 °F 29.9 °F 30.2 °F 81% 29.98 in - WNW 6.9 mph - N/A   Clear
7:50 PM 35.6 °F 29.9 °F 30.2 °F 81% 29.98 in - WNW 6.9 mph - N/A   Clear
8:20 PM 35.6 °F 29.9 °F 30.2 °F 81% 29.98 in - WNW 6.9 mph - N/A   Clear
8:50 PM 35.6 °F 29.2 °F 30.2 °F 81% 29.98 in - NW 8.1 mph - N/A   Clear
9:20 PM 33.8 °F 27.7 °F 30.2 °F 87% 29.98 in - WNW 6.9 mph - N/A   Clear
9:50 PM 33.8 °F 29.6 °F 28.4 °F 81% 29.98 in - WNW 4.6 mph - N/A   Clear
10:20 PM 33.8 °F 27.7 °F 30.2 °F 87% 29.98 in - NW 6.9 mph - N/A   Clear
10:50 PM 33.8 °F 27.7 °F 28.4 °F 81% 29.98 in - NW 6.9 mph - N/A   Clear
11:20 PM 33.8 °F 28.6 °F 28.4 °F 81% 30.01 in - WNW 5.8 mph - N/A   Clear
11:50 PM 32.0 °F 26.4 °F 28.4 °F 87% 30.01 in - WNW 5.8 mph - N/A   Clear